[[{"header":{"parameterUnit":"m.s-1","parameterCategory":1,"la1":30.2991,"la2":30.254,"lo1":-89.0895,"lo2":-89.0444,"dy":0.0017,"dx":0.0017,"nx":28,"ny":28,"refTime":"2023-10-28T03:00:00:Z","depth":0,"parameterNumber":2,"parameterNumberName":"U-component_of_WINDS"},"data":[0,0,0,0,0,0,0,0,0,0,0,0,0,0,0,0,0,0,0,0,0,0,0,0,0,0,0,0,0,0,0,0,0,0,0,0,0,0,0,0,0,0,0,0,0,0,0,0,0,0,0,0,0,0,0,0,0,0,-3.6025,-3.6025,0,-3.5992,-3.5992,-3.5991,-3.5852,-3.5849,-3.5846,-3.5842,-3.5811,-3.5813,-3.5815,0,0,0,0,0,0,0,0,0,0,0,0,0,-3.597,-3.5972,-3.6025,-3.6025,-3.6024,-3.5992,-3.5992,-3.5991,-3.5853,-3.5849,-3.5845,-3.5841,-3.581,-3.5813,-3.5815,0,0,0,0,0,0,0,0,0,0,0,0,0,-3.5972,-3.5973,-3.6025,-3.5951,-3.5944,-3.5992,-3.5992,-3.5991,-3.5853,-3.5849,-3.5844,-3.5839,-3.5809,-3.5812,-3.5816,-3.5933,0,0,-3.5826,-3.5827,0,0,0,0,0,0,0,0,-3.5972,-3.5974,-3.5962,-3.5956,-3.5948,-3.5921,-3.5961,-3.5972,-3.5855,-3.5888,-3.5842,-3.5837,-3.5852,-3.5851,-3.5856,-3.5932,-3.593,-3.5826,-3.5828,-3.5829,-3.583,0,0,0,0,0,0,0,-3.5972,-3.5974,-3.6012,-3.5962,-3.5954,-3.592,-3.5915,-3.5962,-3.5897,-3.5885,-3.5874,-3.5872,-3.5847,-3.5853,-3.5854,-3.593,-3.5826,-3.5829,-3.5831,-3.5832,-3.6104,-3.6109,0,0,0,0,0,0,-3.5982,-3.5975,-3.6013,-3.6011,-3.5948,-3.5925,-3.592,-3.5935,-3.5897,-3.5886,-3.5877,-3.5866,-3.585,-3.585,-3.5852,-3.5989,-3.5829,-3.5832,-3.5834,-3.6099,-3.6105,-3.6111,0,0,0,0,0,0,-3.5981,-3.5987,-3.6014,-3.599,-3.5991,-3.5931,-3.595,-3.5937,-3.5942,-3.589,-3.5878,-3.5894,-3.5846,-3.5848,-3.5915,-3.5986,-3.5834,-3.5837,-3.6093,-3.6101,-3.6108,-3.6264,0,0,0,0,0,0,-3.598,-3.5987,-3.603,-3.5992,-3.5993,-3.6077,-3.5954,-3.594,-3.5948,-3.5934,-3.5904,-3.5894,-3.5842,-3.5911,-3.5918,-3.5988,-3.5839,-3.6086,-3.6096,-3.6105,-3.6252,-3.6276,-3.6297,0,0,0,0,0,-3.5979,-3.6075,-3.6033,-3.6038,-3.6046,-3.6081,-3.6082,-3.6019,-3.5955,-3.5998,-3.5965,-3.5895,-3.5977,-3.5919,-3.5926,-3.5998,-3.6081,-3.6093,-3.6105,-3.6242,-3.6271,-3.6296,0,0,0,0,0,0,-3.6122,-3.6068,-3.6021,-3.6108,-3.61,-3.6057,-3.611,-3.6052,-3.6062,-3.6049,-3.5971,-3.5966,-3.6045,-3.6027,-3.5963,-3.6111,-3.6017,-3.6031,-3.6119,-3.6147,-3.6169,-3.6172,-3.5842,0,0,0,0,0,-3.6164,-3.6197,-3.6148,-3.6229,-3.6228,-3.6171,-3.6183,-3.6136,-3.6125,-3.6121,-3.6093,-3.6085,-3.611,-3.6127,-3.6146,-3.6249,-3.6242,-3.6302,-3.6325,-3.6343,-3.6356,-3.6412,-3.6439,-3.615,-3.615,-3.6149,0,0,-3.6251,-3.6225,-3.625,-3.6258,-3.6246,-3.6283,-3.6168,-3.6211,-3.6238,-3.6128,-3.619,-3.6169,-3.6156,-3.6242,-3.6279,-3.623,-3.6435,-3.6358,-3.6373,-3.6376,-3.6427,-3.6455,-3.6479,-3.6158,-3.6156,-3.6155,0,0,-3.6427,-3.6411,-3.6478,-3.6469,-3.6453,-3.6415,-3.6432,-3.6398,-3.6381,-3.6441,-3.636,-3.6392,-3.6434,-3.6429,-3.6432,-3.6611,-3.6548,-3.6619,-3.6736,-3.6791,-3.6814,-3.6834,-3.69,-3.6924,-3.6632,-3.6633,-3.6633,0,-3.6537,-3.6588,-3.652,-3.6569,-3.6576,-3.6478,-3.6547,-3.6541,-3.6533,-3.6541,-3.6487,-3.654,-3.6524,-3.6609,-3.6653,-3.6658,-3.6676,-3.6622,-3.6816,-3.6836,-3.6853,-3.6915,-3.694,-3.6642,-3.6641,-3.664,-3.6639,0,-3.6725,-3.6763,-3.6819,-3.6814,-3.6827,-3.6886,-3.6828,-3.6849,-3.6802,-3.677,-3.6835,-3.6813,-3.6827,-3.6844,-3.6797,-3.6924,-3.6894,-3.683,-3.6734,-3.6891,-3.6948,-3.6971,-3.6655,-3.6651,-3.6649,-3.6646,0,0,-3.699,-3.6949,-3.6971,-3.6969,-3.6945,-3.6973,-3.7029,-3.7043,-3.7064,-3.7063,-3.7109,-3.7149,-3.7089,-3.7093,-3.7046,-3.7094,-3.724,-3.7023,-3.7022,-3.7066,-3.7381,-3.7431,-3.7459,-3.7198,-3.7203,-3.7206,-3.7382,0,-3.716,-3.7252,-3.7194,-3.7295,-3.733,-3.724,-3.7288,-3.7281,-3.7253,-3.728,-3.7249,-3.7279,-3.7198,-3.72,-3.7244,-3.7213,-3.7303,-3.72,-3.7242,-3.7244,-3.7249,-3.7488,-3.754,-3.7708,-3.7404,-3.7408,-3.741,0,-3.737,-3.7379,-3.7485,-3.7458,-3.747,-3.7515,-3.7525,-3.7551,-3.7541,-3.7518,-3.7524,-3.7465,-3.7519,-3.7426,-3.7501,-3.7432,-3.7446,-3.7434,-3.7439,-3.7441,-3.7338,-3.7499,-3.7759,-3.7786,-3.7444,-3.7442,-3.7439,0,-3.7555,-3.7593,-3.7662,-3.7663,-3.7632,-3.7667,-3.7656,-3.7641,-3.7654,-3.7663,-3.7672,-3.7687,-3.7696,-3.771,-3.7658,-3.7594,-3.7741,-3.7642,-3.7725,-3.7727,-3.776,-3.7759,-3.8029,-3.7768,-3.7767,-3.7767,-3.7766,0,-3.7752,-3.7821,-3.7745,-3.7788,-3.7863,-3.7796,-3.7873,-3.7852,-3.7841,-3.7879,-3.7801,-3.7839,-3.7767,-3.7798,-3.7757,-3.7828,-3.7832,-3.7815,-3.7804,-3.7823,-3.7826,-3.7832,-3.7819,-3.7774,-3.7772,-3.7771,-3.777,0,-3.7971,-3.7923,-3.7992,-3.7959,-3.7952,-3.801,-3.7981,-3.802,-3.7988,-3.8037,-3.8045,-3.7995,-3.8028,-3.7978,-3.8004,-3.7977,-3.8075,-3.8045,-3.8078,-3.807,-3.8156,-3.815,-3.844,-3.8476,-3.8192,-3.8194,-3.8197,0,-3.81,-3.8151,-3.8124,-3.8144,-3.8138,-3.8171,-3.8184,-3.8121,-3.8139,-3.8134,-3.8174,-3.8201,-3.8218,-3.8275,-3.8242,-3.8263,-3.8234,-3.8334,-3.8236,-3.8255,-3.8238,-3.8236,-3.8242,-3.8355,-3.8358,-3.8361,-3.8363,0,-3.8335,-3.8309,-3.8332,-3.8348,-3.8367,-3.8376,-3.838,-3.8401,-3.8335,-3.8359,-3.8392,-3.8406,-3.8434,-3.8462,-3.8475,-3.8465,-3.8405,-3.8395,-3.8415,-3.8436,-3.8454,-3.8447,-3.8135,-3.8388,-3.8386,-3.8384,-3.8382,-3.8381,-3.8513,-3.8556,-3.8544,-3.8573,-3.857,-3.8576,-3.8611,-3.8585,-3.8611,-3.8629,-3.8591,-3.8634,-3.8626,-3.8637,-3.8634,-3.8667,-3.8623,-3.8653,-3.866,-3.8669,-3.8683,-3.8448,-3.8669,-3.8668,-3.8668,-3.8667,-3.8667,0,-3.8746,-3.8735,-3.8762,-3.877,-3.8794,-3.8735,-3.8737,-3.8761,-3.88,-3.8797,-3.8817,-3.8856,-3.8884,-3.8854,-3.8876,-3.8909,-3.8882,-3.8917,-3.8915,-3.8914,-3.872,-3.8701,-3.8939,-3.8939,-3.8939,-3.8939,-3.8939,-3.8939,-3.887,-3.8939,-3.8913,-3.8981,-3.8969,-3.9011,-3.9018,-3.9024,-3.9021,-3.9069,-3.9092,-3.9072,-3.9059,-3.908,-3.9104,-3.9094,-3.9107,-3.9153,-3.9134,-3.8954,-3.8927,-3.8902,-3.8883,-3.9156,-3.9156,-3.9325,-3.9326,-3.9327]},{"header":{"parameterUnit":"m.s-1","parameterCategory":1,"la1":30.2991,"la2":30.254,"lo1":-89.0895,"lo2":-89.0444,"dy":0.0017,"dx":0.0017,"nx":28,"ny":28,"refTime":"2023-10-28T03:00:00:Z","depth":0,"parameterNumber":3,"parameterNumberName":"V-component_of_WINDS"},"data":[0,0,0,0,0,0,0,0,0,0,0,0,0,0,0,0,0,0,0,0,0,0,0,0,0,0,0,0,0,0,0,0,0,0,0,0,0,0,0,0,0,0,0,0,0,0,0,0,0,0,0,0,0,0,0,0,0,0,-0.4088,-0.4088,0,-0.4116,-0.4116,-0.4117,-0.4112,-0.4112,-0.4111,-0.4111,-0.414,-0.4141,-0.4143,0,0,0,0,0,0,0,0,0,0,0,0,0,-0.4029,-0.403,-0.4088,-0.4088,-0.4088,-0.4116,-0.4116,-0.4117,-0.4112,-0.4112,-0.4111,-0.4111,-0.414,-0.4141,-0.4143,0,0,0,0,0,0,0,0,0,0,0,0,0,-0.4056,-0.403,-0.4088,-0.409,-0.409,-0.4116,-0.4116,-0.4117,-0.4113,-0.4112,-0.4111,-0.411,-0.4139,-0.4141,-0.4143,-0.4169,0,0,-0.4148,-0.4149,0,0,0,0,0,0,0,0,-0.4054,-0.4058,-0.4089,-0.4089,-0.409,-0.411,-0.4106,-0.4134,-0.4113,-0.4104,-0.4111,-0.411,-0.4131,-0.4133,-0.414,-0.417,-0.4171,-0.4149,-0.415,-0.4151,-0.4151,0,0,0,0,0,0,0,-0.4052,-0.4056,-0.4099,-0.4089,-0.409,-0.4089,-0.4092,-0.4111,-0.4121,-0.4105,-0.4104,-0.4108,-0.4131,-0.4138,-0.4141,-0.4172,-0.4149,-0.415,-0.4151,-0.4152,-0.4222,-0.4223,0,0,0,0,0,0,-0.405,-0.4055,-0.4098,-0.41,-0.407,-0.409,-0.4094,-0.4104,-0.4121,-0.4123,-0.4108,-0.4108,-0.4136,-0.4139,-0.4142,-0.4172,-0.4151,-0.4152,-0.4153,-0.4222,-0.4223,-0.4223,0,0,0,0,0,0,-0.4049,-0.4054,-0.4097,-0.4077,-0.4083,-0.4092,-0.4104,-0.4105,-0.4113,-0.4124,-0.4125,-0.4114,-0.4135,-0.4139,-0.4162,-0.4173,-0.4153,-0.4155,-0.4221,-0.4222,-0.4223,-0.4234,0,0,0,0,0,0,-0.4047,-0.4053,-0.4064,-0.4077,-0.4084,-0.4117,-0.4105,-0.4106,-0.4116,-0.4115,-0.413,-0.4131,-0.4135,-0.4159,-0.4163,-0.4176,-0.4156,-0.422,-0.4221,-0.4223,-0.4233,-0.4236,-0.4238,0,0,0,0,0,-0.4045,-0.4066,-0.4064,-0.407,-0.4097,-0.4117,-0.4121,-0.4124,-0.4117,-0.4127,-0.4134,-0.4131,-0.4171,-0.4161,-0.4166,-0.4179,-0.4219,-0.4221,-0.4222,-0.4232,-0.4235,-0.4238,0,0,0,0,0,0,-0.4054,-0.4068,-0.4066,-0.4093,-0.4104,-0.4117,-0.413,-0.4128,-0.4142,-0.414,-0.4144,-0.4147,-0.417,-0.4176,-0.4165,-0.4204,-0.4194,-0.4197,-0.4199,-0.4203,-0.4205,-0.4203,-0.4158,0,0,0,0,0,-0.4059,-0.4075,-0.4086,-0.4108,-0.4114,-0.4121,-0.413,-0.4131,-0.4143,-0.4148,-0.4156,-0.4168,-0.4183,-0.4193,-0.4207,-0.4233,-0.4236,-0.4244,-0.4247,-0.4249,-0.4252,-0.4265,-0.4269,-0.4229,-0.4229,-0.4229,0,0,-0.407,-0.408,-0.409,-0.411,-0.4119,-0.4135,-0.4125,-0.4142,-0.4154,-0.4151,-0.4172,-0.4178,-0.4191,-0.4215,-0.4226,-0.4222,-0.4263,-0.4251,-0.4253,-0.4254,-0.4267,-0.4271,-0.4274,-0.423,-0.423,-0.423,0,0,-0.4098,-0.4107,-0.4126,-0.4135,-0.4148,-0.4152,-0.4156,-0.4169,-0.4173,-0.4194,-0.4192,-0.4205,-0.4231,-0.424,-0.4248,-0.4277,-0.4275,-0.4281,-0.4295,-0.4308,-0.4311,-0.4314,-0.4324,-0.4328,-0.4283,-0.4284,-0.4284,0,-0.4111,-0.4135,-0.4136,-0.4154,-0.4163,-0.4159,-0.4178,-0.4186,-0.4203,-0.4209,-0.4203,-0.4235,-0.4243,-0.4269,-0.4276,-0.4282,-0.4287,-0.428,-0.431,-0.4313,-0.4316,-0.4326,-0.4329,-0.4284,-0.4284,-0.4284,-0.4284,0,-0.4149,-0.4165,-0.4179,-0.4195,-0.4205,-0.4223,-0.4227,-0.4237,-0.4236,-0.4241,-0.4262,-0.4271,-0.4287,-0.4293,-0.4293,-0.4318,-0.4315,-0.431,-0.43,-0.432,-0.433,-0.4333,-0.4285,-0.4285,-0.4285,-0.4285,0,0,-0.4186,-0.4201,-0.4206,-0.4213,-0.4225,-0.4238,-0.4255,-0.427,-0.4278,-0.4289,-0.4304,-0.4324,-0.4319,-0.4328,-0.4329,-0.434,-0.4362,-0.4333,-0.4334,-0.4339,-0.4389,-0.4394,-0.4398,-0.4359,-0.436,-0.4361,-0.4388,0,-0.4216,-0.4246,-0.4247,-0.4275,-0.429,-0.4285,-0.4299,-0.4309,-0.4312,-0.4325,-0.4329,-0.4344,-0.4336,-0.4341,-0.4351,-0.4357,-0.4372,-0.4355,-0.4373,-0.4374,-0.4371,-0.4403,-0.4408,-0.4434,-0.4392,-0.4392,-0.4393,0,-0.4255,-0.4267,-0.4296,-0.4305,-0.4311,-0.4325,-0.4338,-0.435,-0.4359,-0.4361,-0.437,-0.4368,-0.4385,-0.4373,-0.4396,-0.4384,-0.4391,-0.4394,-0.4395,-0.4398,-0.4386,-0.4407,-0.4443,-0.4447,-0.4399,-0.4398,-0.4398,0,-0.428,-0.4303,-0.4323,-0.4328,-0.434,-0.4349,-0.4354,-0.4363,-0.4371,-0.4382,-0.4387,-0.44,-0.4407,-0.4417,-0.4419,-0.441,-0.4441,-0.443,-0.4443,-0.4443,-0.4452,-0.4451,-0.4489,-0.4454,-0.4454,-0.4454,-0.4454,0,-0.4314,-0.4332,-0.4334,-0.4346,-0.4366,-0.4366,-0.4385,-0.4389,-0.4396,-0.4409,-0.4405,-0.4417,-0.4418,-0.4431,-0.4432,-0.445,-0.4453,-0.4455,-0.4456,-0.4456,-0.4456,-0.4462,-0.4461,-0.4455,-0.4455,-0.4455,-0.4455,0,-0.4346,-0.4348,-0.4369,-0.4377,-0.4379,-0.4394,-0.44,-0.4412,-0.4414,-0.443,-0.4434,-0.4438,-0.4451,-0.4453,-0.447,-0.4471,-0.4493,-0.4491,-0.449,-0.449,-0.4503,-0.4502,-0.4547,-0.4553,-0.4514,-0.4514,-0.4515,0,-0.4368,-0.4382,-0.439,-0.4398,-0.4404,-0.4417,-0.4425,-0.4424,-0.4433,-0.4443,-0.4453,-0.4467,-0.4477,-0.4499,-0.4504,-0.4516,-0.4515,-0.4529,-0.4517,-0.4516,-0.4515,-0.4515,-0.4516,-0.4532,-0.4533,-0.4533,-0.4533,0,-0.4407,-0.4407,-0.4419,-0.443,-0.4439,-0.4449,-0.4457,-0.4464,-0.4464,-0.4474,-0.4488,-0.4496,-0.4511,-0.4525,-0.4536,-0.4541,-0.4537,-0.4537,-0.4541,-0.4542,-0.4541,-0.4542,-0.4497,-0.4537,-0.4536,-0.4536,-0.4536,-0.4536,-0.4435,-0.4447,-0.4454,-0.4467,-0.4473,-0.448,-0.4491,-0.4494,-0.4505,-0.4518,-0.4517,-0.4532,-0.4539,-0.4554,-0.4559,-0.4571,-0.4566,-0.4572,-0.4573,-0.4575,-0.4577,-0.4538,-0.4573,-0.4573,-0.4573,-0.4573,-0.4573,0,-0.4475,-0.4479,-0.449,-0.4502,-0.4511,-0.4505,-0.4514,-0.4522,-0.4536,-0.4543,-0.4553,-0.4568,-0.458,-0.4584,-0.4595,-0.4604,-0.4602,-0.4607,-0.4607,-0.4608,-0.458,-0.4576,-0.4608,-0.4608,-0.4608,-0.4608,-0.4608,-0.4608,-0.4496,-0.4515,-0.4515,-0.4536,-0.454,-0.4554,-0.456,-0.4566,-0.4572,-0.4588,-0.4598,-0.46,-0.4606,-0.4617,-0.4628,-0.4629,-0.4634,-0.4639,-0.4639,-0.4613,-0.461,-0.4607,-0.4603,-0.464,-0.464,-0.4666,-0.4666,-0.4667]}]]